Hourly Data Report for August 15, 2022

TORONTO CITY
ONTARIO
Current Station Operator: ECCC - MSC

43°40'00.000" N
79°24'00.000" W
112.50 m
6158355
71508
XTO

Download Data

Hourly Data (August 2022)
Hourly Data Report for August 15, 2022
TIME
LST
Temp Definition
°C
Dew Point Definition
°C
Rel Hum Definition
%
Precip. Amount Definition
mm

Wind Dir Definition
10's deg

Wind Spd Definition
km/h
Visibility Definition
km
Stn Press Definition
kPa
Hmdx Definition


Wind Chill Definition


Weather Definition


00:00 21.1 11.6 55 0.0       100.27     LegendNANA
01:00 21.2 10.1 49 0.0       100.26     LegendNANA
02:00 21.0 9.8 49 0.0       100.25     LegendNANA
03:00 20.4 9.8 50 0.0       100.23     LegendNANA
04:00 19.1 9.7 54 0.0       100.20     LegendNANA
05:00 19.6 9.3 51 0.0       100.22     LegendNANA
06:00 19.5 9.3 52 0.0       100.27     LegendNANA
07:00 20.5 10.2 52 0.0       100.28     LegendNANA
08:00 22.7 10.3 45 0.0       100.33     LegendNANA
09:00 23.8 10.0 42 0.0       100.34 25   LegendNANA
10:00 24.6 10.7 41 0.0       100.37 26   LegendNANA
11:00 25.7 8.5 34 0.0       100.33 26   LegendNANA
12:00 26.1 9.1 34 0.0       100.32 27   LegendNANA
13:00 26.0 10.0 36 0.0       100.32 27   LegendNANA
14:00 26.2 7.9 31 0.0       100.30 27   LegendNANA
15:00 26.5 9.2 34 0.0       100.25 27   LegendNANA
16:00 26.1 10.1 36 0.0       100.24 27   LegendNANA
17:00 25.3 10.1 38 0.0       100.23 27   LegendNANA
18:00 25.4 9.4 36 0.0       100.23 26   LegendNANA
19:00 24.3 9.2 38 0.0       100.27 25   LegendNANA
20:00 23.7 8.8 39 0.0       100.31     LegendNANA
21:00 22.5 10.0 45 0.0       100.37     LegendNANA
22:00 21.1 9.8 48 0.0       100.38     LegendNANA
23:00 21.6 11.7 53 0.0       100.39     LegendNANA

Notes on Data Quality.

Legend

  • E = Estimated
  • M = Missing
  • NA = Not Available*
  • [empty] = Indicates an unobserved value
Date modified: